Погода в Савгачево

Россия / Республика Татарстан     54°59′51″N   50°46′22″E
темп.,
°C
ветер,
м/с
пор.,
м/с
влажн.,
%
обл.,
%
осадки,
мм/ч
давл.,
гПа
погр.,
м
11 мая, вт
вт1100:00+15в346086 0.0 102162
03:00+14в3465100 0.0 102245
06:00+17в2362100 0.0 102380
09:00+21в2347100 0.0 1024435
12:00+24вюв233820 0.0 10251913
15:00+25ю233399 0.0 10252501
18:00+20з335899 0.0 102647
21:00+18с1159100 0.0 102711
12 мая, ср
ср1200:00+16в2264100 0.0 102713
03:00+14всв335917 0.0 102737
06:00+16вюв346756 0.0 1028122
09:00+21вюв3454100 0.0 1028496
12:00+24вюв4637100 0.0 10272709
15:00+24юв56339 0.0 10272522
18:00+22юв225295 0.0 102630
21:00+17ююв2256100 0.0 102721
13 мая, чт
чт1300:00+15ююв225967 0.0 102720
03:00+14вюв236191 0.0 102721
06:00+16вюв37645 0.0 1028183
09:00+21юв574594 0.0 1027715
12:00+24юв5638100 0.0 10261180
15:00+25ююв57375 0.0 10251474
18:00+22ююв49578 0.0 1024229
21:00+18юв411606 0.0 1024166
14 мая, пт
пт1400:00+16ююв410595 0.0 1025153
03:00+15ююв495942 0.0 1025146
06:00+17ююв4106373 0.0 1025256
09:00+22ю684760 0.0 1024464
12:00+25ю68375 0.0 1023979
15:00+27ю68375 0.0 10231473
18:00+23ю48545 0.0 1022181
21:00+18ю4105417 0.0 1023149
15 мая, сб
сб1500:00+17ю475831 0.0 1022106
03:00+15ю475718 0.0 102399
06:00+17ю49635 0.0 1023227
09:00+23ю69455 0.0 1022516
12:00+27ююз68335 0.0 10211148
15:00+27ююз57330 0.0 10201666
18:00+24ю35500 0.0 101990
21:00+19ю35520 0.0 101948